Location: East Guldeford
(50.9500°N, 0.7500°E)
Time: 17:37:33
(UTC+00:00)

Cosmos 2341 Rocket - Pass Details

Date: 12 May 2021
Orbit: 969 x 1004 km, 82.9° (Epoch: 15 June)

Event Time Altitude Azimuth Distance (km) Brightness Sun altitude
Rises 22:20:16 0° 349° (N) 3,744 8.6 -17.7°
Reaches altitude 10° 22:22:49 10° 349° (N) 2,791 7.6 -17.9°
Maximum altitude 22:29:15 86° 263° (W) 1,014 4.0 -18.3°
Enters shadow 22:32:48 29° 176° (S) 1,757 4.8 -18.5°
